Location: Unspecified
(0.0000°N, 0.0000°E)
Time: 11:25:35
(UTC+00:00)

A-11 Canister half - Pass Details

Date: 20 November 2019
Orbit: 1526 x 1683 km, 47.3° (Epoch: 07 December)

Event Time Altitude Azimuth Distance (km) Brightness Sun altitude
Rises 09:55:50 0° 246° (WSW) 4,925 11.5 56.7°
Reaches altitude 10° 09:59:38 10° 257° (WSW) 3,941 11.1 57.4°
Maximum altitude 10:07:49 28° 311° (NW) 2,772 10.4 59.0°
Drops below altitude 10° 10:15:58 10° 6° (N) 3,903 11.1 60.5°
Sets 10:19:46 0° 18° (NNE) 4,871 11.5 61.2°
